Location: Central Falls
(41.8900°N, 71.3929°W)
Time: 13:01:19
(UTC+00:00)

Vanguard 2 - Visible Passes

Search period start: 03 December 2023 00:00
Search period end: 13 December 2023 00:00
Orbit: 553 x 2922 km, 32.9° (Epoch: 02 December)

Date Brightness Start Highest point End Pass type
(mag) Time Alt. Az. Time Alt. Az. Time Alt. Az.
03 Dec 10.9 01:10:29 10° SSW 01:21:10 32° S 01:21:10 32° S visible
03 Dec 11.7 03:20:31 10° WSW 03:22:24 14° WSW 03:22:24 14° WSW visible
03 Dec 11.1 23:19:08 10° S 23:30:17 20° SE 23:34:45 18° ESE visible
04 Dec 10.8 01:25:05 10° SW 01:35:59 35° S 01:35:59 35° S visible
04 Dec 11.7 03:35:56 10° WSW 03:37:13 13° WSW 03:37:13 13° WSW visible
04 Dec 10.9 23:32:27 10° SSW 23:45:32 26° SE 23:49:32 24° SE visible
05 Dec 10.8 01:39:58 10° SW 01:50:47 38° SSW 01:50:47 38° SSW visible
05 Dec 11.8 03:51:27 10° WSW 03:52:01 11° WSW 03:52:01 11° WSW visible
05 Dec 11.6 21:47:34 10° SE 21:51:03 11° SE 21:54:32 10° ESE visible
05 Dec 10.8 23:46:22 10° SSW 00:00:48 32° SSE 00:04:19 30° SE visible
06 Dec 10.8 01:55:04 10° SW 02:05:32 39° SSW 02:05:32 39° SSW visible
06 Dec 11.4 21:57:16 10° SSE 22:06:06 16° SE 22:14:58 10° ESE visible
07 Dec 10.6 00:00:43 10° SSW 00:16:07 39° SSE 00:19:02 37° SE visible
07 Dec 10.8 02:10:20 10° WSW 02:20:15 38° SW 02:20:15 38° SW visible
07 Dec 11.3 22:09:49 10° S 22:21:09 22° SE 22:32:30 10° E visible
08 Dec 10.5 00:15:23 10° SW 00:31:29 45° SSE 00:33:44 43° SE visible
08 Dec 10.9 02:25:44 10° WSW 02:34:57 36° SW 02:34:57 36° SW visible
08 Dec 11.2 22:23:19 10° SSW 22:36:14 28° SE 22:47:09 14° E visible
09 Dec 10.4 00:30:17 10° SW 00:46:54 50° SSE 00:48:23 49° SSE visible
09 Dec 11.0 02:41:14 10° WSW 02:49:36 34° WSW 02:49:36 34° WSW visible
09 Dec 11.0 22:37:22 10° SSW 22:51:21 34° SE 23:01:47 19° E visible
10 Dec 10.3 00:45:24 10° SW 01:02:21 55° SSE 01:02:59 55° SSE visible
10 Dec 11.1 02:56:48 10° W 03:04:13 30° WSW 03:04:13 30° WSW visible
10 Dec 10.8 22:51:47 10° SSW 23:06:32 40° SSE 23:16:22 23° ESE visible
11 Dec 10.3 01:00:39 10° WSW 01:17:35 59° S 01:17:35 59° S visible
11 Dec 11.3 03:12:25 10° W 03:18:48 27° WSW 03:18:48 27° WSW visible
11 Dec 10.7 23:06:30 10° SW 23:21:47 46° SSE 23:30:55 28° ESE visible
12 Dec 10.3 01:16:02 10° WSW 01:32:08 60° S 01:32:08 60° S visible
12 Dec 11.4 03:28:04 10° W 03:33:21 23° W 03:33:21 23° W visible
12 Dec 10.6 23:21:25 10° SW 23:37:07 51° SSE 23:45:27 33° ESE visible
